QPF
0.00 0.00 0.00 0.00 0.00 0.00 0.00 0.00 0.00 0.00 0.00 0.00 0.00 0.00 0.00 0.00 0.00 0.00 0.00 0.00 0.00 0.00 0.00 0.00 0.00 0.00 0.00 0.00 0.00 0.00 0.00 0.00 0.00
0.00 0.00 0.00 0.00 0.00 0.00 0.00 0.00 0.00 0.00 0.00 0.00 0.00 0.00 0.00 0.00 0.00 0.00 0.00 0.00 0.00 0.00 0.00 0.00 0.00 0.00 0.00 0.00 0.00 0.00 0.00 0.00 0.00
0.00 0.00 0.00 0.00 0.00 0.01 0.01 0.01 0.00 0.00 0.00 0.00 0.00 0.00 0.00 0.00 0.00 0.00 0.00 0.00 0.00 0.00 0.00 0.00 0.00 0.00 0.00 0.00 0.00 0.00 0.00 0.00 0.00
0.00 0.00 0.00 0.00 0.02 0.01 0.00 0.00 0.00 0.00 0.00 0.00 0.00 0.00 0.00 0.00 0.00 0.00 0.00 0.00 0.00 0.00 0.00 0.00 0.00 0.00 0.00 0.00 0.00 0.00 0.00 0.00 0.00
0.00 0.00 0.00 0.00 0.00 0.00 0.00 0.00 0.00 0.00 0.00 0.00 0.00 0.00 0.00 0.00 0.00 0.00 0.00 0.00 0.00 0.00 0.00 0.00 0.00 0.00 0.00 0.00 0.00 0.00 0.00 0.00 0.00
0.01 0.03 0.02 0.00 0.00 0.00 0.00 0.00 0.00 0.00 0.00 0.00 0.00 0.00 0.00 0.00 0.00 0.00 0.00 0.00 0.00 0.00 0.00 0.00 0.00 0.00 0.00 0.00 0.00 0.00 0.00 0.00 0.00
0.03 0.14 0.09 0.06 0.01 0.00 0.00 0.00 0.00 0.00 0.00 0.00 0.00 0.00 0.00 0.00 0.00 0.00 0.00 0.00 0.00 0.00 0.00 0.00 0.00 0.00 0.00 0.00 0.00 0.00 0.00 0.00 0.00
0.01 0.08 0.12 0.08 0.02 0.00 0.00 0.00 0.01 0.01 0.01 0.00 0.00 0.00 0.00 0.00 0.00 0.00 0.00 0.00 0.00 0.00 0.00 0.00 0.00 0.00 0.00 0.00 0.00 0.00 0.00 0.00 0.00
0.00 0.11 0.16 0.06 0.02 0.01 0.00 0.00 0.01 0.04 0.06 0.03 0.00 0.00 0.00 0.00 0.00 0.00 0.00 0.00 0.00 0.00 0.00 0.00 0.00 0.00 0.00 0.00 0.00 0.00 0.00 0.00 0.00
0.00 0.01 0.08 0.13 0.09 0.05 0.02 0.00 0.00 0.03 0.08 0.04 0.01 0.01 0.00 0.00 0.00 0.00 0.00 0.00 0.00 0.00 0.00 0.00 0.00 0.00 0.00 0.00 0.00 0.00 0.00 0.00 0.00
0.00 0.00 0.00 0.02 0.06 0.09 0.07 0.03 0.01 0.00 0.01 0.03 0.01 0.02 0.00 0.00 0.00 0.00 0.00 0.00 0.00 0.00 0.00 0.00 0.00 0.00 0.00 0.00 0.00 0.00 0.00 0.00 0.00
0.00 0.00 0.00 0.01 0.01 0.05 0.08 0.08 0.06 0.07 0.03 0.03 0.02 0.00 0.00 0.00 0.00 0.00 0.00 0.00 0.00 0.00 0.00 0.00 0.00 0.00 0.00 0.00 0.00 0.00 0.00 0.00 0.00
0.00 0.00 0.00 0.01 0.00 0.01 0.01 0.01 0.08 0.10 0.07 0.04 0.01 0.03 0.07 0.04 0.00 0.00 0.00 0.00 0.00 0.00 0.00 0.00 0.00 0.00 0.00 0.00 0.00 0.00 0.00 0.00 0.00
0.00 0.00 0.00 0.01 0.01 0.01 0.00 0.02 0.05 0.09 0.05 0.03 0.02 0.01 0.03 0.02 0.00 0.00 0.00 0.00 0.00 0.00 0.00 0.00 0.00 0.00 0.00 0.00 0.00 0.00 0.00 0.00 0.00
0.00 0.00 0.00 0.01 0.01 0.03 0.01 0.01 0.03 0.06 0.10 0.04 0.02 0.02 0.05 0.03 0.02 0.01 0.00 0.00 0.00 0.00 0.00 0.00 0.00 0.00 0.00 0.00 0.00 0.00 0.00 0.00 0.00
0.00 0.00 0.00 0.00 0.00 0.00 0.00 0.00 0.00 0.01 0.02 0.06 0.06 0.06 0.05 0.03 0.01 0.05 0.05 0.00 0.00 0.00 0.00 0.00 0.00 0.00 0.00 0.00 0.00 0.00 0.00 0.00 0.00
0.00 0.00 0.00 0.00 0.00 0.00 0.00 0.00 0.00 0.00 0.00 0.00 0.03 0.06 0.08 0.07 0.01 0.00 0.03 0.02 0.00 0.00 0.00 0.00 0.00 0.00 0.00 0.00 0.00 0.00 0.00 0.00 0.00
0.00 0.00 0.00 0.00 0.00 0.00 0.00 0.00 0.00 0.00 0.00 0.00 0.00 0.02 0.06 0.08 0.05 0.02 0.01 0.01 0.00 0.00 0.00 0.00 0.00 0.00 0.00 0.00 0.00 0.00 0.00 0.00 0.00
0.00 0.00 0.00 0.00 0.00 0.00 0.00 0.00 0.00 0.00 0.00 0.00 0.00 0.00 0.02 0.06 0.05 0.05 0.02 0.00 0.00 0.00 0.00 0.00 0.00 0.00 0.00 0.00 0.00 0.00 0.00 0.00 0.00
0.01 0.01 0.00 0.00 0.00 0.00 0.00 0.00 0.00 0.00 0.00 0.00 0.00 0.01 0.01 0.03 0.03 0.04 0.02 0.01 0.00 0.00 0.00 0.00 0.00 0.00 0.00 0.00 0.00 0.00 0.00 0.00 0.01
MSLP
1007.28 1007.58 1007.58 1007.80 1008.45 1009.23 1010.07 1010.98 1011.93 1012.63 1013.39 1014.19 1014.93 1015.59 1016.23 1016.67 1017.06 1017.63 1017.91 1017.99 1018.13 1018.26 1018.41 1018.37 1018.36 1018.68 1018.99 1019.14 1019.36 1019.54 1019.76 1020.11 1020.22
1006.39 1006.78 1006.84 1006.69 1007.49 1008.36 1009.16 1009.90 1010.83 1011.52 1012.47 1013.23 1014.05 1014.74 1015.54 1016.18 1016.54 1017.01 1017.50 1017.74 1017.86 1017.92 1017.94 1017.95 1018.18 1018.48 1018.87 1018.92 1019.11 1019.39 1019.59 1019.97 1020.10
1005.97 1006.07 1005.94 1006.01 1006.75 1007.52 1008.26 1009.05 1010.04 1010.72 1011.60 1012.19 1013.15 1014.05 1014.75 1015.38 1015.96 1016.42 1016.87 1017.28 1017.56 1017.69 1017.64 1017.74 1018.08 1018.43 1018.68 1018.92 1019.01 1019.20 1019.61 1019.88 1020.04
1006.08 1006.51 1006.43 1005.78 1006.36 1007.24 1007.72 1008.38 1009.27 1009.96 1010.64 1011.55 1012.38 1013.28 1014.06 1014.72 1015.29 1015.95 1016.48 1016.88 1017.07 1017.30 1017.45 1017.58 1017.82 1018.01 1018.32 1018.69 1019.02 1019.18 1019.54 1019.73 1019.85
1005.28 1005.86 1006.44 1006.21 1006.18 1006.44 1006.56 1007.36 1008.06 1009.01 1010.09 1010.80 1011.19 1012.08 1013.24 1014.04 1014.62 1015.34 1015.98 1016.36 1016.51 1016.79 1017.12 1017.24 1017.34 1017.62 1017.90 1018.29 1018.64 1018.90 1019.23 1019.51 1019.66
1005.42 1006.16 1006.87 1007.17 1007.51 1007.64 1006.92 1006.85 1007.21 1007.84 1008.89 1009.81 1010.60 1011.46 1012.40 1013.20 1013.98 1014.62 1015.10 1015.72 1016.22 1016.48 1016.76 1016.96 1017.10 1017.25 1017.42 1017.75 1018.11 1018.44 1018.81 1019.06 1019.24
1007.39 1007.44 1007.89 1008.24 1007.49 1008.20 1008.79 1009.03 1008.63 1007.97 1008.41 1009.05 1009.78 1010.65 1011.50 1012.42 1012.92 1013.70 1014.32 1014.98 1015.63 1016.06 1016.32 1016.52 1016.65 1016.73 1016.85 1017.15 1017.56 1017.89 1018.25 1018.54 1018.71
1009.33 1009.70 1009.46 1009.46 1009.06 1008.69 1008.88 1009.11 1009.25 1009.01 1008.11 1008.45 1009.19 1009.81 1010.48 1011.15 1011.96 1012.59 1013.42 1014.04 1014.74 1015.32 1015.72 1015.96 1016.16 1016.37 1016.40 1016.57 1016.95 1017.28 1017.65 1017.91 1018.12
1011.33 1011.52 1011.26 1010.70 1010.61 1010.42 1010.10 1009.38 1009.04 1008.97 1009.05 1008.49 1008.78 1009.11 1009.77 1010.37 1011.08 1011.74 1012.28 1013.07 1013.79 1014.44 1014.77 1015.23 1015.55 1015.72 1015.91 1016.10 1016.28 1016.53 1016.88 1017.19 1017.51
1013.38 1013.30 1012.86 1012.73 1011.98 1011.73 1011.17 1010.50 1009.68 1008.78 1008.46 1008.23 1008.23 1008.46 1009.05 1009.74 1010.22 1010.89 1011.44 1012.15 1012.96 1013.36 1013.76 1014.34 1014.60 1014.92 1015.25 1015.40 1015.61 1015.83 1016.18 1016.50 1016.82
1014.69 1014.24 1013.88 1013.52 1012.47 1011.23 1010.72 1010.65 1010.17 1009.01 1008.37 1007.99 1008.38 1008.26 1008.47 1008.79 1009.32 1009.95 1010.46 1011.16 1011.80 1012.47 1012.99 1013.24 1013.56 1013.91 1014.18 1014.50 1014.76 1015.08 1015.40 1015.77 1016.16
1014.97 1014.58 1014.20 1013.88 1012.75 1011.74 1011.14 1011.17 1009.99 1008.10 1008.16 1008.02 1008.38 1008.45 1008.36 1008.42 1008.65 1009.21 1009.65 1010.02 1010.59 1011.22 1011.98 1012.34 1012.48 1012.72 1013.17 1013.35 1013.59 1014.09 1014.61 1015.12 1015.49
1015.87 1015.11 1014.46 1014.13 1013.09 1012.54 1011.38 1010.08 1008.96 1008.96 1008.99 1008.98 1008.78 1008.73 1008.56 1008.29 1008.31 1008.34 1008.49 1008.77 1009.33 1009.90 1010.48 1011.10 1011.58 1011.70 1011.91 1012.30 1012.56 1012.94 1013.48 1014.12 1014.54
1015.95 1015.52 1014.97 1014.30 1014.01 1013.48 1012.30 1011.80 1011.38 1010.85 1009.95 1009.54 1007.71 1007.96 1008.10 1008.04 1007.64 1007.14 1007.03 1007.68 1008.19 1008.84 1009.41 1010.04 1010.44 1010.63 1010.76 1011.05 1011.40 1011.72 1012.25 1012.79 1013.35
1015.47 1015.10 1014.52 1014.27 1013.99 1013.44 1012.34 1012.06 1011.33 1011.51 1011.36 1009.69 1009.36 1009.15 1008.57 1007.73 1006.59 1006.02 1006.14 1006.43 1007.12 1007.69 1008.38 1008.99 1009.32 1009.58 1009.68 1009.67 1010.10 1010.63 1011.06 1011.55 1012.05
1015.41 1014.40 1014.00 1013.52 1013.44 1013.16 1012.62 1012.33 1011.93 1011.88 1011.22 1010.70 1010.13 1009.08 1008.03 1007.43 1006.72 1005.95 1005.88 1005.61 1005.98 1006.68 1007.29 1007.80 1008.18 1008.34 1008.33 1008.40 1008.97 1009.38 1009.82 1010.24 1010.75
1015.19 1014.32 1013.70 1013.23 1012.76 1012.84 1012.77 1012.10 1011.99 1011.70 1010.93 1010.44 1009.37 1008.46 1007.59 1007.43 1006.64 1005.59 1005.07 1005.00 1005.10 1005.54 1005.97 1006.48 1006.81 1007.04 1007.11 1007.33 1007.82 1008.10 1008.41 1009.36 1010.06
1014.66 1014.12 1013.79 1013.34 1013.23 1012.51 1011.86 1012.22 1013.43 1011.88 1011.98 1011.42 1010.08 1007.94 1007.24 1007.01 1006.63 1005.17 1004.03 1003.87 1003.98 1004.29 1004.33 1004.83 1005.13 1005.34 1005.94 1006.30 1006.42 1006.58 1007.27 1007.77 1008.49
1014.14 1013.66 1013.38 1013.32 1013.15 1013.01 1013.20 1013.09 1012.96 1012.47 1012.32 1011.86 1011.25 1010.94 1010.27 1008.87 1007.64 1005.98 1004.14 1003.46 1004.00 1004.26 1004.06 1003.96 1003.97 1004.24 1004.49 1004.72 1004.88 1005.59 1006.13 1006.57 1007.09
1013.50 1013.33 1013.13 1013.20 1013.10 1012.94 1012.65 1012.07 1011.70 1012.31 1012.34 1012.37 1010.88 1010.46 1009.62 1009.02 1007.95 1006.54 1004.45 1003.01 1003.03 1003.78 1004.48 1004.16 1003.81 1003.86 1003.90 1004.02 1004.32 1005.02 1005.32 1005.70 1006.17
Thickness
5806 5807 5815 5818 5816 5815 5808 5804 5801 5802 5799 5794 5793 5791 5789 5791 5793 5790 5790 5793 5795 5795 5795 5797 5796 5795 5793 5793 5792 5791 5789 5787 5786
5808 5814 5818 5827 5824 5823 5815 5813 5808 5808 5804 5800 5798 5795 5792 5791 5794 5794 5792 5794 5796 5798 5799 5799 5797 5796 5795 5794 5794 5792 5791 5790 5788
5808 5813 5819 5830 5827 5828 5828 5821 5816 5813 5808 5805 5801 5797 5796 5796 5795 5796 5795 5795 5796 5798 5800 5799 5799 5798 5797 5796 5795 5794 5793 5792 5791
5792 5798 5807 5822 5825 5822 5825 5827 5823 5820 5816 5809 5804 5802 5798 5797 5798 5797 5796 5796 5797 5798 5800 5801 5801 5802 5801 5798 5796 5796 5794 5793 5793
5800 5799 5802 5812 5819 5823 5827 5828 5829 5825 5818 5815 5814 5807 5800 5797 5797 5797 5795 5796 5798 5800 5799 5800 5802 5803 5803 5801 5800 5799 5796 5794 5794
5797 5793 5790 5794 5796 5802 5819 5826 5833 5829 5825 5820 5816 5808 5801 5799 5798 5797 5798 5796 5795 5798 5799 5799 5801 5803 5804 5803 5802 5800 5799 5798 5796
5771 5777 5777 5775 5793 5794 5792 5793 5801 5818 5822 5823 5819 5812 5803 5796 5800 5799 5799 5797 5795 5794 5797 5800 5800 5802 5805 5805 5804 5803 5801 5799 5798
5748 5748 5757 5762 5773 5781 5783 5788 5785 5793 5812 5820 5817 5813 5809 5803 5800 5801 5799 5798 5796 5796 5796 5799 5801 5800 5804 5805 5805 5805 5802 5801 5799
5724 5727 5735 5747 5751 5755 5762 5777 5780 5786 5792 5804 5810 5811 5808 5806 5802 5801 5801 5799 5797 5796 5797 5797 5799 5802 5802 5803 5805 5805 5803 5803 5800
5698 5704 5716 5721 5729 5734 5743 5754 5762 5782 5792 5799 5806 5808 5809 5806 5803 5799 5800 5798 5795 5797 5798 5798 5800 5801 5802 5804 5805 5805 5804 5803 5802
5680 5688 5697 5705 5718 5733 5739 5745 5754 5774 5786 5795 5796 5803 5806 5811 5808 5801 5800 5798 5796 5795 5797 5799 5800 5801 5803 5804 5806 5805 5804 5802 5802
5667 5677 5686 5694 5711 5722 5725 5732 5749 5775 5784 5791 5791 5795 5802 5808 5808 5803 5803 5802 5798 5797 5795 5798 5801 5803 5802 5806 5808 5806 5803 5800 5801
5648 5662 5672 5682 5699 5708 5719 5733 5750 5761 5767 5772 5777 5784 5790 5800 5801 5801 5806 5808 5804 5801 5800 5799 5799 5803 5807 5807 5809 5809 5805 5801 5803
5639 5646 5656 5667 5677 5689 5701 5710 5721 5735 5748 5756 5775 5782 5786 5794 5798 5803 5813 5811 5809 5803 5802 5800 5801 5804 5808 5810 5812 5813 5808 5805 5806
5622 5635 5647 5656 5663 5674 5692 5698 5710 5713 5724 5747 5754 5761 5767 5786 5799 5806 5811 5814 5812 5807 5803 5800 5802 5803 5807 5814 5815 5812 5810 5808 5806
5606 5624 5635 5646 5657 5666 5678 5686 5695 5701 5713 5724 5738 5753 5769 5781 5788 5801 5805 5813 5816 5810 5805 5803 5804 5805 5809 5813 5814 5815 5812 5810 5808
5590 5605 5620 5633 5644 5654 5663 5674 5683 5694 5706 5717 5732 5744 5761 5769 5781 5796 5803 5811 5814 5812 5810 5808 5809 5810 5811 5813 5813 5816 5818 5811 5806
5576 5590 5602 5616 5627 5640 5655 5659 5653 5676 5680 5695 5716 5745 5759 5765 5771 5788 5802 5808 5812 5815 5819 5817 5817 5819 5814 5811 5813 5819 5816 5815 5811
5561 5575 5589 5599 5611 5625 5629 5634 5639 5659 5667 5677 5690 5704 5718 5739 5751 5767 5790 5802 5802 5803 5810 5813 5819 5820 5822 5823 5824 5818 5815 5814 5812
5545 5560 5575 5584 5597 5607 5618 5631 5645 5647 5655 5661 5684 5695 5711 5720 5734 5752 5776 5792 5799 5800 5799 5802 5809 5810 5814 5818 5821 5813 5812 5810 5807